Regional Weather Roundup
Issued by NWS Jackson, KY

Home | Current Version | Previous Version | Text Only | Print | Product List | Glossary Off
Versions: 1 2 3 4 5 6 7 8 9 10 11 12 13 14 15 16 17 18 19 20 21 22 23 24 25 26 27 28 29 30 31 32 33 34 35 36 37 38 39 40 41 42 43 44 45 46 47 48 49 50

000
ASUS43 KJKL 222110
RWRJKL

EAST KENTUCKY HOURLY WEATHER ROUNDUP
NATIONAL WEATHER SERVICE JACKSON KY
400 PM EST WED FEB 22 2017

NOTE: "FAIR" INDICATES FEW OR NO CLOUDS BELOW 12,000 FEET WITH
NO SIGNIFICANT WEATHER AND/OR OBSTRUCTIONS TO VISIBILITY.

* THESE REPORTS ARE NOT UNDER NWS QUALITY CONTROL AND MAY NOT
  REPORT WEATHER SUCH AS PRECIPITATION AND FOG.

KYZ079-080-083-085-087-088-110-112-115-119-120-222200
...EASTERN KENTUCKY...

CITY           SKY/WX    TMP DP  RH WIND       PRES   REMARKS
JACKSON        CLOUDY    59  54  83 CALM      29.88F
LONDON         CLOUDY    63  54  72 S5        29.88F
SOMERSET*      MOSUNNY   63  54  72 S3        29.88F
MONTICELLO*    CLOUDY    67  58  72 VRB7      29.87F
WILLIAMSBURG*  CLOUDY    63  57  82 S7        29.88S
MIDDLESBORO*   CLOUDY    59  55  85 CALM      29.91F
HARLAN APT*    CLOUDY    59  52  77 CALM      29.90F
PIKE CO APT*   CLOUDY    59  56  92 CALM      29.89F
MOREHEAD APT*  MOCLDY    63  55  77 S5        29.87F
ASHLAND*       CLOUDY    59  55  88 SE5       29.85F
$$

KYZ035-036-041-042-044-050-067-078-099-222200
...CENTRAL KENTUCKY...

CITY           SKY/WX    TMP DP  RH WIND       PRES   REMARKS
MT STERLING*   MOSUNNY   64  57  77 SW7       29.87F
FLEMING/MASON* CLOUDY    62  57  83 S7        29.85F
DANVILLE*      CLOUDY    66  55  68 S7        29.86F
LEXINGTON      CLOUDY    67  56  67 S7        29.84F
FRANKFORT      CLOUDY    69  54  58 S12       29.82F
LOUISVILLE     MOSUNNY   72  53  51 S10       29.80F
LEBANON*       MOCLDY    70  57  64 S12       29.84F
GLASGOW*       PTSUNNY   69  56  64 S8        29.83F
BOWLING GREEN  CLOUDY    71  57  61 S10       29.82F
$$

KYZ091>093-OHZ055-061-077-WVZ005-015-034-035-042-222200
...SOUTHERN OHIO/WEST VIRGINIA...

CITY           SKY/WX    TMP DP  RH WIND       PRES   REMARKS
COVINGTON      CLOUDY    64  57  78 S7        29.81F
COLUMBUS       CLOUDY    60  55  83 S12       29.83F
DAYTON         CLOUDY    60  56  86 S12       29.81F FOG
WILMINGTON     CLOUDY    59  56  89 S9        29.82F
HUNTINGTON     CLOUDY    58  54  86 S8        29.87F
CHARLESTON     CLOUDY    58  54  86 CALM      29.88F
PINEVILLE*     CLOUDY    58  53  82 MISG      29.96F
BECKLEY        CLOUDY    54  52  93 SW5       29.92F
BLUEFIELD      CLOUDY    53  50  89 SW5       29.94F
LOGAN CO APT*  CLOUDY    57  54  88 CALM      29.90S
$$

VAZ002-007-008-TNZ017-027-036-066-071-222200
...SOUTHWEST VIRGINIA/EAST TENNESSEE...

CITY           SKY/WX    TMP DP  RH WIND       PRES   REMARKS
WISE*          CLOUDY    55  55 100 CALM      29.94S
JONESVILLE*    CLOUDY    59  54  82 CALM      29.93S
ABINGDON*      CLOUDY    56  56  97 NE5       29.93S
BRISTOL        CLOUDY    58  56  93 CALM      29.91F
MORRISTOWN*    MOCLDY    57  57 100 NE6       29.88F
SEVIERVILLE*   CLOUDY    57  55  94 NE6       29.88S
KNOXVILLE      CLOUDY    61  56  83 N9        29.87R
LAFOLLETTE*    CLOUDY    57  55  94 CALM      29.92F
OAK RIDGE      CLOUDY    61  55  81 NE5       29.89F
CROSSVILLE     CLOUDY    62  54  74 S5        29.89S
NASHVILLE      PTSUNNY   69  56  62 S8        29.84S
$$

...KEY TO REMARKS...
VSB - VISIBILITY IN MILES
WCI - WIND CHILL INDEX
HX  - HEAT INDEX

$$



USA.gov is the U.S. government's official web portal to all federal, state and local government web resources and services.